TimeEDT,TemperatureF,Dew PointF,Humidity,Sea Level PressureIn,VisibilityMPH,Wind Direction,Wind SpeedMPH,Gust SpeedMPH,PrecipitationIn,Events,Conditions,WindDirDegrees,DateUTC
12:54 AM,64.0,64.0,100,30.10,8.0,Calm,Calm,-,N/A,,Clear,0,2013-08-20 04:54:00
1:54 AM,64.0,64.0,100,30.09,6.0,Calm,Calm,-,N/A,,Clear,0,2013-08-20 05:54:00
2:54 AM,64.9,64.0,97,30.09,6.0,Calm,Calm,-,N/A,,Overcast,0,2013-08-20 06:54:00
3:44 AM,64.4,64.4,100,30.09,6.0,Calm,Calm,-,N/A,,Mostly Cloudy,0,2013-08-20 07:44:00
3:54 AM,64.9,64.9,100,30.09,7.0,West,3.5,-,N/A,,Overcast,260,2013-08-20 07:54:00
4:54 AM,64.0,64.0,100,30.09,5.0,West,3.5,-,N/A,,Partly Cloudy,260,2013-08-20 08:54:00
5:54 AM,64.9,64.0,97,30.10,4.0,West,3.5,-,N/A,,Clear,260,2013-08-20 09:54:00
6:24 AM,62.6,62.6,100,30.12,2.0,West,3.5,-,N/A,,Clear,260,2013-08-20 10:24:00
6:33 AM,62.6,62.6,100,30.12,4.0,West,3.5,-,N/A,,Clear,270,2013-08-20 10:33:00
6:54 AM,63.0,63.0,100,30.12,4.0,West,3.5,-,N/A,,Clear,280,2013-08-20 10:54:00
7:12 AM,66.2,64.4,94,30.13,2.5,Calm,Calm,-,N/A,,Clear,0,2013-08-20 11:12:00
7:28 AM,66.2,66.2,100,30.13,3.0,WSW,3.5,-,N/A,,Clear,250,2013-08-20 11:28:00
7:54 AM,69.1,68.0,96,30.14,4.0,West,5.8,-,N/A,,Clear,270,2013-08-20 11:54:00
8:54 AM,73.0,68.0,84,30.15,10.0,West,3.5,-,N/A,,Clear,280,2013-08-20 12:54:00
9:54 AM,78.1,68.0,71,30.16,10.0,NNW,4.6,-,N/A,,Clear,330,2013-08-20 13:54:00
10:54 AM,80.1,66.9,64,30.16,10.0,Calm,Calm,-,N/A,,Partly Cloudy,0,2013-08-20 14:54:00
11:54 AM,82.0,66.0,58,30.15,10.0,Variable,3.5,-,N/A,,Clear,0,2013-08-20 15:54:00
12:54 PM,82.0,66.0,58,30.14,10.0,NNW,4.6,-,N/A,,Mostly Cloudy,340,2013-08-20 16:54:00
1:54 PM,84.0,68.0,58,30.13,10.0,Calm,Calm,-,N/A,,Partly Cloudy,0,2013-08-20 17:54:00
2:54 PM,84.0,68.0,58,30.12,10.0,West,6.9,-,N/A,,Clear,260,2013-08-20 18:54:00
3:54 PM,84.9,68.0,57,30.11,10.0,WSW,8.1,-,N/A,,Mostly Cloudy,240,2013-08-20 19:54:00
4:54 PM,84.0,66.9,56,30.10,10.0,Variable,6.9,-,N/A,,Clear,0,2013-08-20 20:54:00
5:54 PM,82.0,69.1,65,30.10,10.0,SW,6.9,-,N/A,,Clear,220,2013-08-20 21:54:00
6:54 PM,78.1,70.0,76,30.11,10.0,SSW,4.6,-,N/A,,Clear,210,2013-08-20 22:54:00
7:54 PM,75.0,69.1,82,30.12,10.0,Calm,Calm,-,N/A,,Clear,0,2013-08-20 23:54:00
8:54 PM,73.0,70.0,90,30.14,10.0,Calm,Calm,-,N/A,,Clear,0,2013-08-21 00:54:00
9:54 PM,72.0,70.0,93,30.16,8.0,Calm,Calm,-,N/A,,Clear,0,2013-08-21 01:54:00
10:54 PM,69.1,68.0,96,30.16,0.8,Calm,Calm,-,N/A,,Clear,0,2013-08-21 02:54:00
11:03 PM,68.0,68.0,100,30.16,2.5,Calm,Calm,-,N/A,,Clear,0,2013-08-21 03:03:00
11:10 PM,68.0,68.0,100,30.16,4.0,Calm,Calm,-,N/A,,Clear,0,2013-08-21 03:10:00
11:54 PM,66.9,66.9,100,30.16,7.0,Calm,Calm,-,N/A,,Clear,0,2013-08-21 03:54:00